Main page
METAR-TAF:

METAR-TAF

Airports :

Oil platform

K14-fa-1c, Netherlands

latitude: 53-16-10N, longitude: 3-37-40E, elevation: 28 m

Current weather observation

The report was made 31 minutes ago, at 20:25 UTC
Wind 30 kt from the Southwest
Temperature 17°C
Humidity 82%
Pressure 1004 hPa
Visibility 10 km or more
Few clouds at a height of 2600 ft

METAR: EHKV 282025Z AUTO 22030KT 9999 FEW026 17/14 Q1004

Time: 22:56 (20:56 UTC)


TAF: missing

Weather observations and forecasts of more than 4000 airports (METAR and TAF reports).

The available stations are represented by yellow and red dots on the map.

Hover mouse over dot to see the name of the station.

Then click to see weather observations and forecasts.

To change the map : click on the green buttons with a black cross to zoom in, on the green button with a dash to zoom out, or on the green arrows for adjacent maps.


METAR-TAF: